When you browse on this site, cookies collect data to enhance your experience and personalize the content and advertising you see.
Visit our Privacy Policy to learn more. By continuing to use the site, you agree to this use of cookies and data.
  • In Spain
  • List of Countries
  • For 7 days
  • Water Temperature
  • Weather Map
  • Weather Widgets
  • user-avatar
    Login

    Hourly Weather Poltevo

    Today, 23 February, Sunday

    Time Temperature Precipitation Wind Pressure Humidity
    00:00 -5°C° 0 mm 8 mps 740 mmHg 86%
    01:00 -5°C° 0 mm 8 mps 739 mmHg 85%
    02:00 -4°C° 0 mm 9 mps 738 mmHg 85%
    03:00 -4°C° 0.1 mm 9 mps 736 mmHg 87%
    04:00 -4°C° 0.1 mm 9 mps 735 mmHg 89%
    05:00 -4°C° 0.1 mm 9 mps 734 mmHg 91%
    06:00 -4°C° 0.8 mm 9 mps 733 mmHg 93%
    07:00 -4°C° 0.8 mm 9 mps 732 mmHg 94%
    08:00 -4°C° 0.8 mm 9 mps 731 mmHg 96%
    09:00 -4°C° 0.4 mm 9 mps 731 mmHg 96%
    10:00 -4°C° 0.4 mm 8 mps 730 mmHg 97%
    11:00 -2°C° 0.4 mm 8 mps 729 mmHg 97%
    12:00 -2°C° 0.5 mm 7 mps 729 mmHg 97%
    13:00 -2°C° 0.5 mm 6 mps 728 mmHg 96%
    14:00 0°C° 0.5 mm 5 mps 728 mmHg 96%
    15:00 -1°C° 0.1 mm 5 mps 728 mmHg 93%
    16:00 -1°C° 0.1 mm 5 mps 728 mmHg 91%
    17:00 -1°C° 0.1 mm 5 mps 727 mmHg 88%
    18:00 -2°C° 0 mm 5 mps 728 mmHg 88%
    19:00 -2°C° 0 mm 4 mps 728 mmHg 88%
    20:00 -3°C° 0 mm 4 mps 728 mmHg 87%
    21:00 -3°C° 0 mm 4 mps 728 mmHg 87%
    22:00 -3°C° 0 mm 4 mps 727 mmHg 88%
    23:00 -3°C° 0 mm 4 mps 727 mmHg 88%

    Tomorrow, 24 February, Monday

    Time Temperature Precipitation Wind Pressure Humidity
    00:00 -3°C° 0 mm 4 mps 727 mmHg 89%
    01:00 -3°C° 0 mm 4 mps 727 mmHg 89%
    02:00 -4°C° 0 mm 4 mps 727 mmHg 90%
    03:00 -4°C° 0 mm 4 mps 726 mmHg 91%
    04:00 -4°C° 0 mm 4 mps 726 mmHg 93%
    05:00 -4°C° 0 mm 4 mps 725 mmHg 94%
    06:00 -4°C° 0 mm 3 mps 725 mmHg 94%
    07:00 -4°C° 0 mm 3 mps 725 mmHg 94%
    08:00 -4°C° 0 mm 3 mps 725 mmHg 93%
    09:00 -2°C° 0 mm 2 mps 725 mmHg 93%
    10:00 -2°C° 0 mm 2 mps 725 mmHg 93%
    11:00 -1°C° 0 mm 2 mps 724 mmHg 92%
    12:00 +1°C° 0 mm 1 mps 724 mmHg 91%
    13:00 +1°C° 0 mm 1 mps 724 mmHg 90%
    14:00 +2°C° 0 mm 1 mps 724 mmHg 88%
    15:00 +1°C° 0 mm 1 mps 724 mmHg 89%
    16:00 +1°C° 0 mm 1 mps 725 mmHg 90%
    17:00 -1°C° 0 mm 2 mps 725 mmHg 91%
    18:00 -2°C° 0 mm 2 mps 725 mmHg 89%
    19:00 -2°C° 0 mm 3 mps 726 mmHg 88%
    20:00 -3°C° 0 mm 4 mps 726 mmHg 86%
    21:00 -3°C° 0 mm 4 mps 727 mmHg 85%
    22:00 -4°C° 0 mm 5 mps 727 mmHg 84%
    23:00 -4°C° 0 mm 6 mps 727 mmHg 83%

    Day after tomorrow, 25 February, Tuesday

    Time Temperature Precipitation Wind Pressure Humidity
    00:00 -5°C° 0 mm 6 mps 728 mmHg 81%
    01:00 -5°C° 0 mm 6 mps 729 mmHg 79%
    02:00 -5°C° 0 mm 6 mps 729 mmHg 77%
    03:00 -6°C° 0 mm 5 mps 730 mmHg 77%
    04:00 -6°C° 0 mm 5 mps 730 mmHg 77%
    05:00 -6°C° 0 mm 5 mps 730 mmHg 78%
    06:00 -6°C° 0 mm 5 mps 731 mmHg 78%
    07:00 -6°C° 0 mm 5 mps 731 mmHg 78%
    08:00 -6°C° 0 mm 5 mps 732 mmHg 78%
    09:00 -5°C° 0 mm 5 mps 732 mmHg 74%
    10:00 -4°C° 0 mm 5 mps 732 mmHg 69%
    11:00 -2°C° 0 mm 5 mps 732 mmHg 65%
    12:00 -2°C° 0 mm 5 mps 732 mmHg 64%
    13:00 -1°C° 0 mm 4 mps 732 mmHg 62%
    14:00 -1°C° 0 mm 4 mps 732 mmHg 61%
    15:00 -2°C° 0 mm 4 mps 732 mmHg 66%
    16:00 -2°C° 0 mm 4 mps 732 mmHg 70%
    17:00 -2°C° 0 mm 3 mps 732 mmHg 75%
    18:00 -2°C° 0 mm 3 mps 732 mmHg 78%
    19:00 -4°C° 0 mm 4 mps 732 mmHg 80%
    20:00 -4°C° 0 mm 4 mps 732 mmHg 83%
    21:00 -4°C° 0 mm 4 mps 731 mmHg 87%
    22:00 -4°C° 0 mm 4 mps 731 mmHg 90%
    23:00 -4°C° 0 mm 5 mps 731 mmHg 94%

    26 February, Wednesday

    Time Temperature Precipitation Wind Pressure Humidity
    00:00 -4°C° 0.1 mm 5 mps 730 mmHg 95%
    01:00 -4°C° 0.1 mm 5 mps 730 mmHg 96%
    02:00 -4°C° 0.1 mm 5 mps 729 mmHg 97%
    03:00 -2°C° 0.2 mm 5 mps 729 mmHg 97%
    04:00 -1°C° 0.2 mm 5 mps 728 mmHg 97%
    05:00 -1°C° 0.2 mm 5 mps 728 mmHg 96%
    06:00 -1°C° 0.1 mm 5 mps 728 mmHg 96%
    07:00 -1°C° 0.1 mm 5 mps 728 mmHg 96%
    08:00 -2°C° 0.1 mm 6 mps 727 mmHg 95%
    09:00 -2°C° 0 mm 6 mps 727 mmHg 95%
    10:00 -1°C° 0 mm 6 mps 727 mmHg 94%
    11:00 -1°C° 0 mm 6 mps 727 mmHg 94%
    12:00 -1°C° 0.1 mm 6 mps 727 mmHg 94%
    13:00 -1°C° 0.1 mm 6 mps 727 mmHg 94%
    14:00 -1°C° 0.1 mm 6 mps 727 mmHg 94%
    15:00 0°C° 0 mm 5 mps 728 mmHg 95%
    16:00 -1°C° 0 mm 4 mps 728 mmHg 95%
    17:00 -1°C° 0 mm 4 mps 728 mmHg 96%
    18:00 0°C° 0 mm 3 mps 728 mmHg 96%
    19:00 0°C° 0 mm 3 mps 729 mmHg 96%
    20:00 +1°C° 0 mm 2 mps 729 mmHg 97%
    21:00 +1°C° 0 mm 2 mps 729 mmHg 97%
    22:00 +1°C° 0 mm 2 mps 729 mmHg 97%
    23:00 +1°C° 0 mm 2 mps 729 mmHg 97%

    27 February, Thursday

    Time Temperature Precipitation Wind Pressure Humidity
    00:00 +1°C° 0.1 mm 2 mps 729 mmHg 97%
    01:00 +1°C° 0.1 mm 2 mps 729 mmHg 97%
    02:00 0°C° 0.1 mm 3 mps 728 mmHg 97%
    03:00 0°C° 0.3 mm 3 mps 728 mmHg 97%
    04:00 0°C° 0.3 mm 3 mps 728 mmHg 97%
    05:00 0°C° 0.3 mm 3 mps 728 mmHg 96%
    06:00 -1°C° 0.2 mm 4 mps 727 mmHg 96%
    07:00 -1°C° 0.2 mm 4 mps 727 mmHg 96%
    08:00 -1°C° 0.2 mm 4 mps 727 mmHg 96%
    09:00 -1°C° 0.2 mm 4 mps 727 mmHg 96%
    10:00 -1°C° 0.2 mm 4 mps 727 mmHg 96%
    11:00 -1°C° 0.2 mm 4 mps 727 mmHg 97%
    12:00 0°C° 0.1 mm 4 mps 727 mmHg 96%
    13:00 0°C° 0.1 mm 4 mps 727 mmHg 96%
    14:00 0°C° 0.1 mm 4 mps 727 mmHg 95%
    15:00 0°C° 0.3 mm 4 mps 727 mmHg 96%
    16:00 0°C° 0.3 mm 4 mps 727 mmHg 96%
    17:00 0°C° 0.3 mm 5 mps 727 mmHg 96%
    18:00 0°C° 0.1 mm 4 mps 728 mmHg 96%
    19:00 0°C° 0.1 mm 4 mps 728 mmHg 96%
    20:00 0°C° 0.1 mm 4 mps 729 mmHg 97%
    21:00 0°C° 0 mm 4 mps 729 mmHg 97%
    22:00 0°C° 0 mm 4 mps 729 mmHg 97%
    23:00 0°C° 0 mm 4 mps 730 mmHg 97%

    28 February, Friday

    Time Temperature Precipitation Wind Pressure Humidity
    00:00 +1°C° 0 mm 3 mps 730 mmHg 96%
    01:00 +1°C° 0 mm 3 mps 730 mmHg 96%
    02:00 +1°C° 0 mm 3 mps 731 mmHg 95%
    03:00 0°C° 0 mm 3 mps 731 mmHg 95%
    04:00 +1°C° 0 mm 2 mps 732 mmHg 95%
    05:00 +1°C° 0 mm 2 mps 732 mmHg 95%
    06:00 +1°C° 0 mm 2 mps 732 mmHg 94%
    07:00 +1°C° 0 mm 2 mps 733 mmHg 93%
    08:00 -1°C° 0 mm 2 mps 733 mmHg 93%
    09:00 +1°C° 0 mm 2 mps 733 mmHg 91%
    10:00 +1°C° 0 mm 2 mps 734 mmHg 89%
    11:00 +1°C° 0 mm 2 mps 734 mmHg 87%
    12:00 +2°C° 0 mm 2 mps 734 mmHg 84%
    13:00 +3°C° 0 mm 2 mps 734 mmHg 82%
    14:00 +3°C° 0 mm 2 mps 735 mmHg 79%
    15:00 +4°C° 0 mm 1 mps 735 mmHg 80%
    16:00 +3°C° 0 mm 1 mps 735 mmHg 81%
    17:00 +3°C° 0 mm 1 mps 735 mmHg 82%
    18:00 +2°C° 0 mm 1 mps 736 mmHg 82%
    19:00 +1°C° 0 mm 0 mps 736 mmHg 83%
    20:00 0°C° 0 mm 0 mps 736 mmHg 84%
    21:00 +1°C° 0 mm 1 mps 736 mmHg 85%
    22:00 +1°C° 0 mm 1 mps 736 mmHg 87%
    23:00 -2°C° 0 mm 2 mps 736 mmHg 89%
    Show more